GFSWCAN_prec_precacc_180.txt.gz
Total_Precipitation_Accumulation
1.79 1.82 1.86 1.71 1.44 1.46 1.56 1.63 1.76 2.05 1.83 1.56 1.48 1.35 1.54 1.54 1.71 2.40 2.04 1.69 3.12 3.56 1.66 1.13 0.71 0.82 0.85 0.94 1.35 1.62 2.06 2.13 2.15 1.79 1.35 1.26 1.20 0.67 0.79 1.15 0.67 0.84 0.98 1.13 1.44 1.97 1.21 0.12 0.30 0.65 0.83 0.46 0.31 0.38
1.78 1.89 1.53 1.34 1.06 1.28 1.52 1.46 1.41 1.39 1.87 1.60 1.41 1.35 1.61 1.81 1.81 2.25 2.26 1.58 2.24 3.54 2.31 1.23 0.77 0.59 0.56 0.51 0.71 0.97 1.53 1.62 1.77 1.59 1.03 0.82 0.76 0.62 0.72 0.94 0.88 1.45 1.20 1.29 1.01 1.00 0.57 0.30 0.43 0.49 0.41 0.42 0.44 0.60
1.55 1.78 1.41 1.12 1.06 1.08 1.30 1.27 1.29 1.21 1.45 1.54 1.36 1.33 1.87 2.14 1.97 2.23 2.08 1.65 3.39 3.96 2.71 1.68 1.33 0.63 0.44 0.54 0.49 1.17 0.83 1.10 1.58 1.28 1.60 1.20 0.96 0.51 0.49 0.74 0.71 0.59 0.56 1.00 0.97 0.67 0.39 0.53 0.44 0.25 0.25 0.28 0.30 0.31
1.49 1.79 1.35 1.03 1.21 1.12 1.09 0.79 0.93 1.18 1.27 1.57 1.81 1.65 1.94 2.21 2.12 2.66 2.57 2.23 3.56 2.99 2.78 1.95 1.31 0.93 0.55 0.73 0.45 0.50 0.44 0.43 0.86 1.26 1.90 1.69 1.11 0.79 0.68 0.69 0.63 0.54 0.76 0.71 1.03 0.97 0.70 0.66 0.94 0.62 0.44 0.32 0.32 0.33
1.54 1.44 1.19 1.33 1.28 0.90 0.85 0.54 0.60 0.87 0.96 1.58 1.93 2.01 2.32 2.60 2.64 3.57 3.25 2.92 2.72 2.42 2.41 1.91 1.04 1.08 0.79 0.96 0.68 0.67 0.63 0.65 1.10 1.30 1.48 1.16 0.78 0.99 0.93 0.87 0.53 0.41 1.01 0.96 0.91 1.14 1.28 1.36 0.89 0.72 0.81 0.61 0.44 0.22
1.52 1.13 1.43 1.70 1.22 0.81 0.59 0.54 0.56 0.66 0.86 1.54 1.98 2.20 2.68 2.96 3.95 5.98 7.38 4.42 2.52 2.26 2.77 2.27 1.30 1.01 1.14 1.52 1.26 0.86 1.10 1.08 1.40 1.77 1.04 0.55 0.52 1.16 1.12 1.13 0.67 0.46 0.47 0.65 0.99 1.04 1.08 0.97 0.61 0.38 0.29 0.34 0.34 0.24
1.46 1.59 1.90 1.68 1.09 0.62 0.44 0.53 0.53 0.67 0.96 1.27 1.57 1.89 2.25 2.50 3.14 4.18 3.38 2.12 1.82 2.64 3.92 2.65 1.72 1.17 1.32 1.97 2.18 1.83 1.63 1.91 2.10 2.05 1.22 0.62 0.53 0.92 1.11 0.94 0.63 0.42 0.52 0.52 0.69 0.61 0.41 0.33 0.27 0.16 0.07 0.05 0.04 0.04
2.07 2.09 1.63 1.22 0.77 0.77 0.46 0.61 0.70 0.83 1.09 1.20 1.52 1.72 2.09 2.60 3.25 2.76 1.81 1.89 1.97 3.14 2.70 1.99 1.72 1.92 1.61 2.32 2.68 2.15 2.44 2.57 2.30 1.95 1.21 0.77 0.84 1.28 1.27 0.66 0.37 0.27 0.41 0.37 0.38 0.29 0.20 0.13 0.08 0.05 0.04 0.12 0.21 0.18
2.50 1.75 1.11 1.10 0.81 0.81 0.51 0.74 0.94 1.10 1.28 1.78 2.14 2.81 4.02 3.50 3.16 2.10 1.72 2.37 2.42 2.26 1.77 0.84 1.20 2.59 2.32 2.21 2.12 1.78 1.99 2.32 1.72 1.16 0.85 1.10 1.41 1.42 0.80 0.35 0.31 0.25 0.30 0.32 0.22 0.12 0.08 0.09 0.06 0.05 0.02 0.03 0.25 0.36
1.65 1.09 0.79 0.97 0.83 0.95 0.85 1.07 1.38 1.44 1.95 2.29 2.72 3.52 3.74 2.35 1.97 2.19 3.18 3.48 3.47 2.06 1.24 0.80 0.65 1.67 2.35 2.33 1.89 1.75 1.44 1.24 1.27 0.92 0.97 1.39 1.03 0.50 0.21 0.21 0.22 0.17 0.20 0.21 0.21 0.24 0.22 0.31 0.21 0.09 0.05 0.08 0.18 0.16
0.87 0.78 0.74 0.93 0.91 0.87 0.88 1.09 1.72 2.02 2.04 1.80 2.16 2.87 2.44 2.36 2.38 2.60 2.62 1.96 1.63 1.14 0.47 0.51 0.58 1.28 1.49 2.18 1.73 1.36 1.55 1.05 0.83 0.96 0.91 1.17 0.64 0.36 0.13 0.09 0.11 0.16 0.19 0.23 0.26 0.26 0.27 0.44 0.18 0.13 0.23 0.29 0.23 0.16
0.94 0.79 0.81 0.83 0.87 0.93 1.07 1.28 1.56 1.05 1.18 1.07 1.71 2.08 2.54 2.45 2.08 1.63 1.26 0.90 0.68 0.53 0.36 0.47 0.76 1.45 1.37 1.73 1.76 1.49 1.41 1.28 1.25 0.92 0.73 0.88 0.67 0.29 0.20 0.16 0.13 0.16 0.22 0.28 0.26 0.24 0.26 0.28 0.26 0.24 0.25 0.23 0.23 0.26
0.82 0.79 0.84 0.84 0.92 0.93 0.89 1.08 1.09 1.06 1.28 1.42 1.22 1.32 1.48 1.19 1.27 0.80 0.55 0.51 0.60 0.44 0.42 0.55 1.08 1.65 1.39 1.81 1.74 1.26 1.61 1.45 1.24 1.71 1.13 0.64 0.41 0.32 0.19 0.21 0.24 0.25 0.24 0.29 0.33 0.33 0.29 0.29 0.28 0.30 0.32 0.39 0.41 0.54
0.63 0.73 1.11 1.18 1.09 1.13 1.31 1.50 1.85 1.71 1.54 1.25 1.08 0.94 1.16 0.90 0.66 0.63 0.70 0.91 0.56 0.70 0.74 1.10 1.26 1.55 1.58 1.60 1.31 1.01 1.21 1.13 1.10 0.97 0.84 0.74 0.49 0.36 0.31 0.30 0.27 0.38 0.42 0.44 0.50 0.49 0.54 0.59 0.75 0.91 0.97 1.05 0.86 0.96
0.63 0.92 1.25 1.16 1.17 1.24 1.38 1.58 1.63 1.29 1.14 1.20 1.04 1.11 0.71 1.00 0.85 0.81 0.68 0.53 0.45 0.76 1.28 1.48 1.50 1.35 1.15 1.58 0.94 0.73 0.82 0.90 0.79 1.01 1.01 0.75 0.58 0.54 0.58 0.63 0.65 0.75 0.81 0.89 0.97 0.91 1.01 0.97 0.83 1.07 1.20 1.08 0.86 0.85
0.62 1.27 1.29 1.21 1.21 1.11 1.28 1.29 1.28 1.22 1.23 1.20 1.18 1.03 0.82 0.83 0.88 0.75 0.60 0.51 0.59 1.31 1.48 1.47 1.39 1.10 0.83 0.52 0.53 0.50 0.59 0.97 0.88 0.78 0.76 0.67 0.73 0.87 0.92 0.96 1.04 1.05 1.00 0.99 0.98 0.87 0.87 0.82 0.74 0.83 0.86 0.78 0.73 0.55
0.90 1.56 1.29 1.06 0.93 0.91 1.01 1.09 1.09 0.91 0.94 0.86 1.09 1.21 1.10 0.98 1.08 1.08 0.91 0.76 0.76 1.26 1.38 0.95 0.83 0.80 0.82 0.42 0.34 0.40 0.74 1.03 0.99 1.01 0.90 0.86 0.93 1.06 1.09 1.01 0.99 0.83 0.73 0.70 0.65 0.62 0.65 0.63 0.45 0.33 0.40 0.51 0.41 0.35
0.87 0.90 0.80 0.66 0.58 0.72 0.61 0.45 0.65 0.52 0.53 0.84 0.90 1.17 0.84 1.02 1.03 0.90 0.92 0.89 1.03 1.12 1.07 1.04 0.82 0.57 0.77 1.15 1.12 1.17 1.15 1.21 1.14 0.97 0.96 1.05 0.96 0.97 0.96 0.83 0.85 0.68 0.54 0.53 0.44 0.42 0.41 0.35 0.28 0.31 0.30 0.29 0.24 0.27
0.91 0.90 0.96 0.65 0.43 0.61 0.67 0.49 0.30 0.37 0.71 0.75 0.77 0.62 0.54 0.70 0.65 0.65 0.53 0.51 0.44 0.38 0.49 0.47 0.42 0.55 0.79 0.97 1.05 0.99 0.96 0.77 0.79 0.75 0.75 0.85 0.83 0.81 0.82 0.73 0.66 0.58 0.43 0.36 0.25 0.25 0.29 0.28 0.30 0.26 0.23 0.18 0.22 0.25
0.93 0.70 0.62 0.63 0.63 0.63 0.56 0.39 0.16 0.20 0.54 0.65 0.57 0.33 0.31 0.45 0.33 0.18 0.11 0.08 0.07 0.17 0.30 0.47 0.77 1.02 1.07 1.19 0.87 0.80 0.78 0.61 0.47 0.44 0.60 0.73 0.73 0.59 0.62 0.50 0.44 0.38 0.30 0.29 0.29 0.27 0.24 0.25 0.24 0.20 0.18 0.17 0.18 0.20
0.81 0.52 0.26 0.32 0.71 0.55 0.34 0.38 0.31 0.19 0.29 0.39 0.34 0.19 0.31 0.15 0.13 0.14 0.11 0.08 0.15 0.27 0.62 0.88 0.91 1.06 0.74 0.70 0.61 0.53 0.59 0.51 0.53 0.34 0.35 0.44 0.52 0.34 0.40 0.44 0.34 0.26 0.24 0.28 0.28 0.30 0.25 0.22 0.19 0.15 0.15 0.17 0.16 0.15
0.47 0.21 0.19 0.24 0.41 0.51 0.30 0.07 0.29 0.37 0.12 0.17 0.17 0.14 0.22 0.24 0.18 0.13 0.19 0.22 0.45 0.71 0.74 0.64 0.64 0.52 0.36 0.42 0.41 0.29 0.36 0.29 0.33 0.36 0.37 0.32 0.37 0.39 0.45 0.46 0.31 0.33 0.32 0.29 0.24 0.22 0.19 0.16 0.12 0.11 0.12 0.14 0.13 0.11
0.21 0.18 0.19 0.09 0.21 0.16 0.18 0.10 0.12 0.13 0.13 0.14 0.13 0.18 0.15 0.20 0.23 0.18 0.24 0.26 0.63 0.81 0.53 0.27 0.28 0.23 0.33 0.39 0.23 0.20 0.22 0.20 0.26 0.36 0.37 0.35 0.34 0.34 0.29 0.27 0.25 0.21 0.17 0.14 0.08 0.07 0.09 0.05 0.06 0.10 0.14 0.16 0.17 0.19
0.28 0.35 0.33 0.37 0.18 0.12 0.10 0.11 0.04 0.06 0.09 0.08 0.11 0.12 0.16 0.18 0.09 0.12 0.21 0.38 0.69 0.49 0.28 0.30 0.19 0.18 0.25 0.25 0.26 0.30 0.32 0.27 0.26 0.27 0.26 0.18 0.17 0.17 0.10 0.10 0.07 0.06 0.04 0.03 0.03 0.07 0.07 0.07 0.08 0.13 0.14 0.14 0.17 0.15
0.45 0.32 0.30 0.36 0.21 0.11 0.07 0.07 0.06 0.07 0.08 0.07 0.12 0.12 0.14 0.09 0.09 0.08 0.11 0.39 0.40 0.34 0.34 0.31 0.24 0.24 0.31 0.38 0.40 0.34 0.18 0.13 0.13 0.12 0.14 0.09 0.08 0.13 0.12 0.08 0.06 0.05 0.05 0.11 0.14 0.12 0.12 0.11 0.12 0.11 0.12 0.13 0.12 0.12
0.48 0.32 0.19 0.19 0.20 0.12 0.12 0.09 0.08 0.05 0.06 0.09 0.14 0.14 0.13 0.20 0.17 0.16 0.25 0.39 0.28 0.32 0.37 0.38 0.34 0.25 0.27 0.25 0.23 0.16 0.10 0.06 0.07 0.05 0.06 0.03 0.03 0.06 0.08 0.10 0.12 0.12 0.04 0.06 0.08 0.16 0.19 0.15 0.14 0.14 0.16 0.15 0.15 0.16
0.41 0.33 0.15 0.09 0.12 0.14 0.14 0.11 0.08 0.13 0.17 0.17 0.17 0.16 0.19 0.20 0.17 0.32 0.43 0.32 0.32 0.34 0.28 0.26 0.18 0.15 0.15 0.13 0.10 0.08 0.05 0.03 0.05 0.04 0.02 0.00 0.02 0.02 0.05 0.09 0.09 0.08 0.04 0.04 0.04 0.08 0.12 0.15 0.16 0.17 0.18 0.21 0.18 0.15
0.44 0.19 0.14 0.09 0.05 0.09 0.19 0.20 0.21 0.25 0.26 0.21 0.22 0.19 0.19 0.21 0.46 0.56 0.57 0.49 0.33 0.20 0.16 0.16 0.14 0.07 0.05 0.07 0.09 0.07 0.07 0.06 0.03 0.03 0.05 0.09 0.07 0.06 0.06 0.07 0.04 0.02 0.04 0.04 0.05 0.04 0.07 0.10 0.15 0.19 0.22 0.18 0.15 0.16
0.36 0.18 0.10 0.12 0.17 0.25 0.33 0.32 0.34 0.33 0.24 0.22 0.24 0.31 0.38 0.39 0.56 0.62 0.59 0.56 0.40 0.21 0.15 0.15 0.23 0.14 0.11 0.11 0.09 0.06 0.06 0.06 0.08 0.13 0.10 0.13 0.17 0.16 0.12 0.09 0.05 0.03 0.06 0.09 0.12 0.09 0.11 0.13 0.16 0.16 0.17 0.20 0.19 0.27
0.14 0.16 0.20 0.13 0.19 0.45 0.66 0.44 0.47 0.30 0.13 0.14 0.24 0.35 0.46 0.79 1.06 0.73 0.54 0.51 0.51 0.49 0.38 0.26 0.25 0.19 0.18 0.17 0.19 0.24 0.21 0.13 0.12 0.14 0.15 0.11 0.12 0.11 0.12 0.09 0.07 0.07 0.08 0.09 0.14 0.24 0.25 0.21 0.23 0.27 0.29 0.31 0.36 0.36
0.21 0.27 0.34 0.26 0.36 0.47 0.35 0.19 0.16 0.16 0.13 0.12 0.18 0.34 0.47 0.68 0.62 0.49 0.47 0.48 0.43 0.38 0.33 0.36 0.34 0.29 0.23 0.20 0.16 0.16 0.22 0.19 0.13 0.13 0.14 0.10 0.08 0.09 0.09 0.08 0.08 0.08 0.09 0.08 0.10 0.12 0.14 0.17 0.19 0.18 0.16 0.17 0.18 0.21
0.19 0.29 0.30 0.28 0.34 0.30 0.26 0.21 0.17 0.25 0.22 0.17 0.27 0.42 0.50 0.47 0.41 0.33 0.36 0.33 0.31 0.27 0.27 0.28 0.32 0.39 0.34 0.28 0.21 0.19 0.16 0.16 0.13 0.11 0.13 0.12 0.10 0.09 0.10 0.11 0.11 0.11 0.12 0.13 0.13 0.13 0.12 0.13 0.15 0.15 0.15 0.14 0.13 0.14
0.28 0.39 0.37 0.24 0.19 0.17 0.19 0.25 0.30 0.24 0.23 0.29 0.46 0.68 0.71 0.57 0.48 0.50 0.35 0.33 0.41 0.32 0.26 0.27 0.32 0.32 0.27 0.29 0.31 0.27 0.20 0.15 0.12 0.09 0.08 0.09 0.08 0.09 0.10 0.12 0.13 0.14 0.16 0.18 0.19 0.18 0.18 0.17 0.16 0.13 0.12 0.10 0.10 0.11

GFSWCAN_prec_precacc_183.txt.gz
Total_Precipitation_Accumulation
1.79 1.82 1.86 1.71 1.44 1.46 1.56 1.64 1.76 2.06 1.86 1.64 1.60 1.44 1.59 1.58 1.73 2.40 2.06 1.76 3.15 3.57 1.67 1.13 0.72 0.84 0.94 1.11 1.48 1.66 2.10 2.24 2.29 2.03 1.52 1.30 1.24 0.72 0.85 1.21 0.74 0.92 1.12 1.39 1.67 2.07 1.21 0.12 0.30 0.65 0.83 0.46 0.31 0.38
1.78 1.89 1.53 1.34 1.06 1.28 1.52 1.46 1.41 1.39 1.93 1.68 1.50 1.51 1.73 1.88 1.87 2.27 2.27 1.64 2.29 3.57 2.34 1.24 0.77 0.59 0.56 0.60 0.90 1.12 1.64 1.75 1.94 1.86 1.24 0.89 0.76 0.64 0.75 0.96 0.89 1.46 1.22 1.31 1.06 1.04 0.57 0.30 0.43 0.49 0.41 0.42 0.44 0.60
1.55 1.78 1.41 1.12 1.06 1.08 1.30 1.27 1.30 1.21 1.45 1.58 1.46 1.52 2.10 2.31 2.10 2.27 2.09 1.71 3.44 4.00 2.77 1.72 1.34 0.63 0.44 0.56 0.65 1.41 1.05 1.28 1.72 1.43 1.76 1.28 1.01 0.52 0.50 0.74 0.71 0.60 0.56 1.01 0.97 0.68 0.39 0.53 0.44 0.25 0.25 0.28 0.30 0.31
1.49 1.79 1.35 1.03 1.21 1.12 1.09 0.79 0.94 1.21 1.28 1.59 1.88 1.74 2.07 2.34 2.24 2.73 2.60 2.29 3.59 3.00 2.83 1.99 1.31 0.93 0.55 0.73 0.49 0.71 0.61 0.59 1.03 1.43 2.01 1.87 1.19 0.82 0.69 0.69 0.64 0.54 0.76 0.73 1.04 0.97 0.70 0.66 0.94 0.62 0.44 0.32 0.32 0.33
1.54 1.44 1.19 1.33 1.28 0.90 0.85 0.54 0.60 0.90 0.98 1.61 1.95 2.03 2.33 2.62 2.70 3.65 3.30 2.97 2.76 2.44 2.45 1.92 1.04 1.08 0.79 0.96 0.70 0.75 0.87 0.85 1.33 1.56 1.76 1.37 0.98 1.14 0.99 0.92 0.58 0.42 1.01 0.96 0.92 1.14 1.28 1.36 0.89 0.72 0.81 0.61 0.44 0.22
1.52 1.13 1.43 1.70 1.22 0.81 0.59 0.54 0.56 0.67 0.92 1.59 2.00 2.23 2.72 3.00 3.98 6.02 7.43 4.44 2.58 2.37 2.81 2.34 1.32 1.02 1.15 1.55 1.33 0.96 1.40 1.35 1.53 1.93 1.17 0.70 0.68 1.36 1.32 1.31 0.75 0.48 0.47 0.65 0.99 1.04 1.08 0.97 0.61 0.38 0.29 0.34 0.34 0.24
1.46 1.59 1.90 1.68 1.09 0.62 0.44 0.53 0.53 0.67 0.98 1.36 1.64 1.91 2.30 2.61 3.23 4.33 3.45 2.14 1.84 2.78 4.09 2.71 1.75 1.20 1.40 2.12 2.33 1.99 1.81 2.14 2.19 2.09 1.27 0.66 0.58 1.02 1.23 0.99 0.66 0.44 0.52 0.52 0.69 0.61 0.41 0.33 0.27 0.16 0.07 0.05 0.04 0.04
2.07 2.09 1.63 1.22 0.77 0.77 0.46 0.61 0.70 0.83 1.09 1.20 1.57 1.79 2.21 2.77 3.40 2.86 1.83 1.91 2.00 3.24 2.82 2.09 1.76 1.96 1.73 2.51 2.91 2.35 2.66 2.76 2.46 2.10 1.31 0.79 0.85 1.31 1.32 0.67 0.37 0.27 0.41 0.37 0.38 0.29 0.20 0.13 0.08 0.05 0.04 0.12 0.21 0.18
2.50 1.75 1.11 1.10 0.81 0.81 0.51 0.74 0.94 1.10 1.28 1.78 2.14 2.83 4.11 3.63 3.31 2.26 1.81 2.44 2.51 2.40 1.90 0.90 1.23 2.63 2.38 2.35 2.29 1.93 2.13 2.49 1.85 1.27 0.96 1.16 1.46 1.43 0.80 0.35 0.31 0.25 0.30 0.32 0.22 0.12 0.08 0.09 0.06 0.05 0.02 0.03 0.25 0.36
1.65 1.09 0.79 0.97 0.83 0.95 0.85 1.07 1.38 1.44 1.95 2.29 2.72 3.53 3.75 2.37 1.98 2.22 3.25 3.55 3.57 2.16 1.31 0.89 0.69 1.71 2.41 2.44 2.02 1.86 1.51 1.32 1.34 0.94 0.99 1.41 1.04 0.51 0.21 0.21 0.22 0.17 0.20 0.21 0.21 0.24 0.22 0.31 0.21 0.09 0.05 0.08 0.18 0.16
0.87 0.78 0.74 0.93 0.91 0.87 0.88 1.09 1.72 2.02 2.04 1.81 2.16 2.87 2.44 2.36 2.38 2.63 2.64 2.02 1.68 1.20 0.50 0.57 0.60 1.32 1.53 2.25 1.81 1.41 1.60 1.07 0.84 0.97 0.91 1.17 0.64 0.37 0.13 0.09 0.11 0.16 0.19 0.23 0.26 0.26 0.27 0.44 0.18 0.13 0.23 0.29 0.23 0.16
0.94 0.79 0.81 0.83 0.87 0.93 1.07 1.28 1.56 1.05 1.18 1.07 1.71 2.08 2.55 2.46 2.09 1.64 1.26 0.90 0.70 0.56 0.38 0.50 0.78 1.45 1.39 1.74 1.77 1.51 1.42 1.30 1.27 0.92 0.73 0.88 0.67 0.29 0.20 0.16 0.13 0.16 0.22 0.28 0.26 0.24 0.26 0.28 0.26 0.24 0.25 0.23 0.23 0.26
0.82 0.79 0.84 0.84 0.92 0.93 0.89 1.08 1.09 1.06 1.28 1.44 1.22 1.32 1.49 1.19 1.27 0.80 0.56 0.53 0.60 0.46 0.44 0.56 1.09 1.66 1.39 1.82 1.74 1.26 1.61 1.46 1.24 1.71 1.13 0.64 0.41 0.32 0.19 0.21 0.24 0.25 0.24 0.29 0.33 0.33 0.29 0.29 0.28 0.30 0.32 0.39 0.41 0.54
0.63 0.73 1.11 1.18 1.09 1.13 1.31 1.50 1.85 1.71 1.55 1.25 1.08 0.94 1.16 0.90 0.66 0.63 0.71 0.93 0.57 0.71 0.75 1.11 1.27 1.55 1.58 1.60 1.31 1.01 1.21 1.13 1.10 0.97 0.84 0.74 0.49 0.36 0.31 0.30 0.27 0.38 0.42 0.44 0.50 0.49 0.54 0.59 0.75 0.91 0.97 1.05 0.86 0.96
0.63 0.92 1.25 1.16 1.17 1.24 1.38 1.58 1.63 1.29 1.14 1.20 1.04 1.11 0.71 1.00 0.85 0.81 0.68 0.54 0.47 0.79 1.29 1.49 1.51 1.36 1.15 1.58 0.94 0.73 0.82 0.90 0.79 1.01 1.01 0.75 0.58 0.54 0.58 0.63 0.65 0.75 0.81 0.89 0.97 0.91 1.01 0.97 0.83 1.07 1.20 1.08 0.86 0.85
0.62 1.27 1.29 1.21 1.21 1.11 1.28 1.29 1.28 1.22 1.23 1.20 1.18 1.04 0.83 0.85 0.88 0.75 0.60 0.52 0.61 1.32 1.49 1.47 1.39 1.10 0.83 0.52 0.53 0.50 0.59 0.97 0.88 0.79 0.76 0.67 0.73 0.87 0.92 0.96 1.04 1.05 1.00 0.99 0.98 0.87 0.87 0.82 0.74 0.83 0.86 0.78 0.73 0.55
0.90 1.56 1.29 1.06 0.93 0.91 1.01 1.09 1.09 0.91 0.94 0.86 1.09 1.21 1.11 1.00 1.08 1.08 0.93 0.79 0.79 1.28 1.40 0.96 0.83 0.80 0.82 0.43 0.34 0.40 0.74 1.04 1.00 1.01 0.90 0.86 0.93 1.06 1.09 1.01 0.99 0.83 0.73 0.70 0.65 0.62 0.65 0.63 0.45 0.33 0.40 0.51 0.41 0.35
0.87 0.90 0.80 0.66 0.58 0.72 0.61 0.45 0.65 0.52 0.54 0.85 0.91 1.17 0.84 1.02 1.03 0.90 0.93 0.92 1.05 1.15 1.09 1.06 0.83 0.58 0.77 1.15 1.13 1.18 1.16 1.21 1.14 0.97 0.96 1.05 0.96 0.97 0.96 0.83 0.85 0.68 0.54 0.53 0.44 0.42 0.41 0.35 0.28 0.31 0.30 0.29 0.25 0.27
0.91 0.90 0.96 0.65 0.43 0.61 0.67 0.49 0.30 0.37 0.71 0.75 0.77 0.62 0.54 0.70 0.65 0.65 0.53 0.51 0.44 0.38 0.49 0.48 0.42 0.55 0.80 0.99 1.08 0.99 0.96 0.77 0.80 0.75 0.75 0.85 0.83 0.81 0.82 0.73 0.66 0.58 0.43 0.36 0.25 0.25 0.29 0.28 0.30 0.26 0.23 0.18 0.23 0.25
0.93 0.70 0.62 0.63 0.63 0.63 0.56 0.39 0.16 0.20 0.54 0.65 0.57 0.34 0.32 0.45 0.33 0.18 0.11 0.08 0.07 0.17 0.30 0.48 0.77 1.04 1.10 1.21 0.89 0.80 0.78 0.61 0.47 0.44 0.61 0.73 0.73 0.59 0.62 0.50 0.44 0.38 0.30 0.29 0.29 0.27 0.24 0.25 0.24 0.20 0.18 0.17 0.18 0.20
0.81 0.52 0.26 0.32 0.72 0.55 0.34 0.38 0.31 0.19 0.29 0.39 0.34 0.19 0.31 0.15 0.13 0.14 0.11 0.08 0.16 0.27 0.62 0.88 0.92 1.07 0.75 0.73 0.65 0.55 0.59 0.51 0.53 0.34 0.35 0.44 0.52 0.34 0.40 0.44 0.34 0.26 0.24 0.28 0.28 0.30 0.25 0.22 0.19 0.15 0.15 0.17 0.16 0.15
0.47 0.21 0.19 0.24 0.41 0.51 0.30 0.07 0.30 0.37 0.12 0.17 0.17 0.14 0.22 0.24 0.18 0.13 0.20 0.23 0.45 0.71 0.74 0.65 0.65 0.53 0.38 0.43 0.45 0.31 0.36 0.29 0.33 0.36 0.37 0.32 0.37 0.39 0.45 0.46 0.31 0.33 0.32 0.29 0.24 0.22 0.19 0.16 0.12 0.11 0.12 0.14 0.13 0.11
0.21 0.18 0.19 0.10 0.21 0.16 0.18 0.10 0.12 0.13 0.13 0.14 0.13 0.18 0.15 0.21 0.25 0.21 0.27 0.27 0.63 0.81 0.54 0.27 0.28 0.23 0.37 0.44 0.27 0.21 0.22 0.20 0.27 0.36 0.37 0.35 0.34 0.34 0.29 0.27 0.25 0.21 0.17 0.15 0.09 0.08 0.09 0.06 0.06 0.10 0.14 0.16 0.17 0.19
0.28 0.35 0.33 0.37 0.19 0.13 0.10 0.11 0.04 0.07 0.09 0.08 0.11 0.12 0.16 0.20 0.10 0.13 0.21 0.38 0.70 0.50 0.31 0.32 0.23 0.20 0.27 0.32 0.29 0.30 0.32 0.27 0.27 0.27 0.27 0.18 0.17 0.17 0.10 0.10 0.07 0.06 0.04 0.03 0.03 0.07 0.07 0.07 0.08 0.13 0.14 0.14 0.17 0.15
0.45 0.32 0.30 0.37 0.22 0.12 0.08 0.08 0.07 0.08 0.09 0.08 0.13 0.12 0.16 0.12 0.11 0.08 0.11 0.40 0.43 0.37 0.35 0.32 0.25 0.26 0.34 0.44 0.48 0.38 0.18 0.13 0.13 0.12 0.14 0.09 0.08 0.13 0.12 0.08 0.06 0.05 0.05 0.11 0.14 0.12 0.12 0.11 0.12 0.11 0.12 0.13 0.12 0.13
0.48 0.32 0.19 0.19 0.20 0.12 0.12 0.09 0.08 0.05 0.06 0.10 0.15 0.14 0.15 0.22 0.19 0.17 0.27 0.43 0.29 0.33 0.38 0.38 0.35 0.26 0.29 0.29 0.29 0.25 0.12 0.07 0.10 0.06 0.06 0.03 0.03 0.06 0.08 0.10 0.12 0.12 0.04 0.06 0.08 0.16 0.19 0.15 0.14 0.14 0.16 0.15 0.15 0.16
0.41 0.33 0.15 0.09 0.12 0.14 0.14 0.11 0.08 0.13 0.17 0.17 0.18 0.17 0.20 0.21 0.18 0.34 0.45 0.34 0.34 0.35 0.28 0.26 0.18 0.15 0.16 0.13 0.11 0.15 0.21 0.09 0.09 0.06 0.03 0.01 0.02 0.02 0.05 0.09 0.09 0.08 0.04 0.04 0.04 0.08 0.12 0.15 0.16 0.17 0.18 0.21 0.18 0.15
0.44 0.19 0.14 0.09 0.05 0.09 0.19 0.20 0.21 0.25 0.26 0.22 0.22 0.20 0.20 0.22 0.47 0.57 0.58 0.50 0.33 0.20 0.16 0.16 0.14 0.07 0.05 0.07 0.09 0.08 0.08 0.08 0.05 0.04 0.07 0.10 0.08 0.06 0.06 0.07 0.04 0.02 0.04 0.04 0.05 0.04 0.07 0.10 0.15 0.19 0.22 0.18 0.15 0.16
0.36 0.18 0.10 0.12 0.17 0.25 0.33 0.32 0.34 0.33 0.24 0.22 0.24 0.31 0.39 0.40 0.57 0.63 0.59 0.56 0.40 0.21 0.15 0.15 0.24 0.14 0.11 0.11 0.09 0.07 0.07 0.08 0.13 0.19 0.15 0.16 0.18 0.16 0.12 0.09 0.05 0.03 0.06 0.09 0.12 0.09 0.11 0.14 0.16 0.16 0.17 0.20 0.19 0.27
0.14 0.16 0.20 0.13 0.19 0.45 0.66 0.44 0.47 0.31 0.13 0.14 0.24 0.35 0.46 0.79 1.06 0.73 0.54 0.51 0.51 0.49 0.38 0.26 0.25 0.19 0.18 0.17 0.19 0.24 0.22 0.14 0.15 0.20 0.22 0.17 0.14 0.12 0.12 0.09 0.07 0.07 0.08 0.09 0.14 0.24 0.26 0.21 0.24 0.27 0.29 0.31 0.36 0.36
0.21 0.27 0.34 0.26 0.36 0.47 0.35 0.19 0.16 0.16 0.13 0.12 0.18 0.34 0.47 0.68 0.62 0.49 0.47 0.48 0.43 0.38 0.33 0.36 0.35 0.29 0.23 0.20 0.17 0.16 0.23 0.20 0.14 0.14 0.16 0.12 0.13 0.13 0.12 0.08 0.08 0.08 0.09 0.08 0.10 0.12 0.14 0.17 0.19 0.18 0.16 0.17 0.18 0.21
0.19 0.29 0.30 0.28 0.34 0.30 0.26 0.21 0.17 0.25 0.22 0.17 0.27 0.42 0.50 0.47 0.41 0.33 0.36 0.33 0.31 0.28 0.28 0.28 0.32 0.39 0.34 0.29 0.22 0.20 0.18 0.17 0.13 0.11 0.14 0.13 0.11 0.11 0.12 0.12 0.12 0.12 0.12 0.13 0.13 0.13 0.12 0.13 0.15 0.15 0.16 0.14 0.14 0.15
0.30 0.40 0.38 0.24 0.19 0.17 0.19 0.25 0.30 0.24 0.23 0.29 0.46 0.68 0.71 0.58 0.48 0.50 0.35 0.33 0.41 0.33 0.27 0.27 0.33 0.32 0.28 0.29 0.31 0.28 0.24 0.19 0.14 0.10 0.09 0.11 0.10 0.11 0.13 0.15 0.15 0.16 0.17 0.19 0.19 0.18 0.18 0.17 0.16 0.13 0.12 0.11 0.10 0.11

GFSWCAN_prec_precacc_186.txt.gz
Total_Precipitation_Accumulation
1.79 1.82 1.86 1.71 1.44 1.46 1.56 1.64 1.76 2.06 1.86 1.68 1.68 1.48 1.63 1.64 1.78 2.42 2.07 1.76 3.15 3.57 1.67 1.13 0.73 0.86 0.95 1.12 1.53 1.72 2.13 2.27 2.39 2.28 1.80 1.55 1.34 0.73 0.86 1.23 0.86 1.10 1.26 1.63 1.94 2.21 1.24 0.12 0.30 0.65 0.83 0.46 0.31 0.38
1.78 1.89 1.53 1.34 1.06 1.28 1.52 1.46 1.41 1.40 1.94 1.70 1.57 1.55 1.78 1.91 1.91 2.28 2.27 1.64 2.29 3.57 2.34 1.24 0.77 0.59 0.56 0.60 0.91 1.15 1.76 1.90 2.12 2.18 1.53 1.01 0.81 0.65 0.75 0.96 0.89 1.54 1.36 1.43 1.15 1.11 0.57 0.30 0.43 0.49 0.41 0.42 0.44 0.60
1.55 1.78 1.41 1.12 1.06 1.08 1.30 1.27 1.30 1.22 1.46 1.60 1.52 1.59 2.20 2.39 2.16 2.28 2.09 1.71 3.45 4.01 2.77 1.72 1.34 0.63 0.44 0.56 0.65 1.41 1.06 1.36 1.91 1.77 2.09 1.46 1.05 0.52 0.50 0.74 0.71 0.60 0.56 1.03 1.02 0.71 0.40 0.55 0.46 0.25 0.25 0.28 0.30 0.31
1.49 1.79 1.35 1.03 1.21 1.12 1.09 0.79 0.94 1.22 1.29 1.60 1.91 1.83 2.28 2.64 2.45 2.78 2.61 2.29 3.60 3.01 2.83 1.99 1.31 0.93 0.55 0.73 0.49 0.71 0.61 0.61 1.15 1.66 2.35 2.20 1.33 0.84 0.69 0.69 0.64 0.54 0.77 0.73 1.04 0.97 0.70 0.66 0.94 0.62 0.44 0.32 0.32 0.33
1.54 1.44 1.19 1.33 1.28 0.90 0.85 0.54 0.60 0.91 1.00 1.63 1.99 2.07 2.42 2.88 3.06 3.93 3.42 3.03 2.81 2.45 2.45 1.92 1.04 1.08 0.79 0.96 0.71 0.75 0.87 0.86 1.39 1.76 2.04 1.56 1.12 1.20 1.00 0.92 0.58 0.42 1.01 0.96 0.92 1.14 1.28 1.36 0.89 0.72 0.81 0.61 0.44 0.22
1.52 1.13 1.43 1.70 1.22 0.81 0.59 0.54 0.56 0.67 0.92 1.59 2.01 2.25 2.73 3.05 4.10 6.20 7.64 4.52 2.61 2.39 2.84 2.34 1.32 1.02 1.15 1.55 1.33 0.96 1.41 1.41 1.67 2.12 1.36 0.86 0.74 1.40 1.40 1.37 0.76 0.48 0.47 0.65 0.99 1.04 1.08 0.97 0.61 0.38 0.29 0.34 0.34 0.24
1.46 1.59 1.90 1.68 1.09 0.62 0.44 0.53 0.53 0.67 0.98 1.36 1.65 1.93 2.32 2.62 3.23 4.33 3.46 2.14 1.85 2.79 4.20 2.74 1.75 1.20 1.40 2.13 2.34 2.00 1.85 2.25 2.35 2.22 1.38 0.78 0.69 1.13 1.35 1.06 0.69 0.44 0.52 0.52 0.69 0.61 0.41 0.33 0.27 0.16 0.07 0.05 0.04 0.04
2.07 2.09 1.63 1.22 0.77 0.77 0.46 0.61 0.70 0.83 1.10 1.20 1.59 1.86 2.32 2.82 3.42 2.87 1.84 1.93 2.03 3.27 2.90 2.20 1.78 1.97 1.75 2.55 3.00 2.44 2.77 2.90 2.72 2.30 1.40 0.87 0.94 1.43 1.43 0.70 0.39 0.29 0.44 0.38 0.38 0.29 0.20 0.13 0.08 0.05 0.04 0.12 0.21 0.18
2.50 1.75 1.11 1.10 0.81 0.81 0.51 0.74 0.94 1.10 1.28 1.78 2.14 2.86 4.20 3.76 3.43 2.33 1.86 2.48 2.62 2.60 2.02 0.93 1.23 2.64 2.42 2.40 2.41 2.13 2.29 2.66 2.05 1.52 1.09 1.20 1.54 1.50 0.82 0.35 0.31 0.25 0.31 0.33 0.22 0.12 0.08 0.09 0.06 0.05 0.02 0.03 0.25 0.36
1.65 1.09 0.79 0.97 0.83 0.95 0.85 1.07 1.38 1.44 1.95 2.29 2.72 3.53 3.75 2.39 2.00 2.26 3.36 3.68 3.69 2.30 1.40 0.94 0.72 1.73 2.45 2.49 2.10 1.99 1.66 1.47 1.53 1.10 1.11 1.49 1.09 0.51 0.21 0.21 0.22 0.17 0.20 0.21 0.21 0.24 0.22 0.31 0.21 0.09 0.05 0.08 0.18 0.16
0.87 0.78 0.74 0.93 0.91 0.87 0.88 1.09 1.72 2.02 2.04 1.81 2.16 2.87 2.44 2.36 2.39 2.65 2.67 2.10 1.74 1.25 0.53 0.61 0.64 1.39 1.62 2.34 1.87 1.49 1.73 1.18 0.91 1.08 0.98 1.25 0.67 0.37 0.13 0.09 0.11 0.16 0.19 0.23 0.26 0.26 0.27 0.44 0.18 0.13 0.23 0.29 0.23 0.16
0.94 0.79 0.81 0.83 0.87 0.93 1.07 1.28 1.56 1.05 1.18 1.07 1.71 2.08 2.56 2.46 2.09 1.65 1.27 0.91 0.73 0.60 0.39 0.56 0.82 1.49 1.44 1.79 1.82 1.56 1.48 1.38 1.35 0.95 0.77 0.91 0.68 0.29 0.20 0.16 0.13 0.16 0.22 0.28 0.26 0.24 0.26 0.28 0.26 0.24 0.25 0.23 0.23 0.26
0.82 0.79 0.84 0.84 0.92 0.93 0.89 1.08 1.09 1.06 1.29 1.45 1.22 1.32 1.49 1.19 1.27 0.81 0.57 0.56 0.60 0.47 0.46 0.58 1.13 1.70 1.43 1.85 1.76 1.28 1.64 1.49 1.25 1.74 1.18 0.64 0.41 0.32 0.19 0.21 0.24 0.25 0.24 0.29 0.33 0.33 0.29 0.29 0.28 0.30 0.32 0.39 0.41 0.54
0.63 0.73 1.11 1.18 1.09 1.13 1.31 1.50 1.85 1.71 1.56 1.26 1.08 0.94 1.16 0.90 0.66 0.63 0.71 0.95 0.57 0.73 0.76 1.13 1.30 1.56 1.59 1.61 1.32 1.01 1.21 1.13 1.11 0.97 0.85 0.74 0.49 0.36 0.31 0.30 0.27 0.38 0.42 0.44 0.50 0.49 0.54 0.59 0.75 0.91 0.97 1.05 0.86 0.96
0.63 0.92 1.25 1.16 1.17 1.24 1.38 1.58 1.63 1.29 1.14 1.20 1.04 1.11 0.71 1.00 0.85 0.81 0.68 0.55 0.48 0.81 1.31 1.50 1.51 1.36 1.15 1.58 0.94 0.73 0.82 0.90 0.79 1.01 1.01 0.75 0.58 0.54 0.58 0.63 0.65 0.75 0.81 0.89 0.97 0.91 1.01 0.97 0.83 1.07 1.20 1.08 0.86 0.85
0.62 1.27 1.29 1.21 1.21 1.11 1.28 1.29 1.28 1.22 1.23 1.20 1.18 1.04 0.83 0.85 0.89 0.75 0.61 0.53 0.62 1.33 1.49 1.47 1.40 1.10 0.83 0.52 0.53 0.50 0.59 0.97 0.88 0.79 0.76 0.67 0.73 0.87 0.92 0.96 1.04 1.05 1.00 0.99 0.98 0.87 0.87 0.82 0.74 0.83 0.86 0.78 0.73 0.55
0.90 1.56 1.29 1.06 0.93 0.91 1.01 1.09 1.09 0.91 0.94 0.86 1.09 1.21 1.12 1.00 1.08 1.08 0.93 0.79 0.79 1.28 1.40 0.96 0.83 0.80 0.82 0.43 0.34 0.40 0.74 1.04 1.00 1.01 0.90 0.86 0.93 1.06 1.09 1.01 0.99 0.83 0.73 0.70 0.65 0.62 0.65 0.63 0.45 0.33 0.40 0.51 0.41 0.35
0.87 0.90 0.80 0.66 0.58 0.72 0.61 0.45 0.65 0.52 0.54 0.85 0.91 1.17 0.84 1.02 1.03 0.90 0.93 0.92 1.05 1.16 1.09 1.06 0.83 0.58 0.77 1.15 1.13 1.18 1.16 1.21 1.14 0.97 0.96 1.05 0.96 0.97 0.96 0.83 0.85 0.68 0.54 0.53 0.44 0.42 0.41 0.35 0.28 0.31 0.30 0.29 0.25 0.27
0.91 0.90 0.96 0.65 0.43 0.61 0.67 0.49 0.30 0.37 0.71 0.75 0.77 0.62 0.54 0.70 0.65 0.65 0.53 0.51 0.44 0.38 0.49 0.48 0.43 0.55 0.80 0.99 1.08 1.00 0.96 0.77 0.80 0.75 0.75 0.85 0.83 0.81 0.82 0.73 0.66 0.58 0.43 0.36 0.25 0.25 0.29 0.29 0.30 0.26 0.23 0.19 0.23 0.26
0.93 0.70 0.62 0.63 0.63 0.63 0.56 0.39 0.16 0.20 0.54 0.65 0.57 0.34 0.32 0.45 0.33 0.18 0.11 0.08 0.07 0.17 0.30 0.48 0.77 1.04 1.10 1.21 0.89 0.80 0.78 0.61 0.47 0.45 0.61 0.73 0.73 0.59 0.62 0.50 0.44 0.38 0.30 0.29 0.29 0.27 0.24 0.25 0.24 0.20 0.18 0.17 0.18 0.20
0.81 0.52 0.26 0.32 0.72 0.55 0.34 0.38 0.31 0.19 0.29 0.39 0.34 0.19 0.31 0.15 0.13 0.14 0.11 0.08 0.16 0.27 0.62 0.88 0.92 1.07 0.75 0.73 0.65 0.55 0.59 0.51 0.53 0.34 0.35 0.44 0.52 0.34 0.40 0.44 0.34 0.26 0.24 0.28 0.28 0.30 0.26 0.22 0.19 0.15 0.15 0.17 0.16 0.15
0.47 0.21 0.19 0.24 0.41 0.51 0.30 0.07 0.30 0.37 0.12 0.17 0.17 0.14 0.22 0.24 0.18 0.13 0.20 0.23 0.45 0.71 0.74 0.65 0.65 0.53 0.38 0.43 0.45 0.31 0.36 0.29 0.33 0.36 0.37 0.32 0.37 0.39 0.45 0.46 0.31 0.33 0.32 0.29 0.24 0.23 0.19 0.16 0.12 0.11 0.12 0.14 0.13 0.11
0.21 0.18 0.19 0.10 0.21 0.16 0.18 0.10 0.12 0.13 0.13 0.14 0.13 0.18 0.15 0.21 0.25 0.21 0.27 0.27 0.63 0.81 0.54 0.28 0.29 0.23 0.39 0.45 0.29 0.21 0.22 0.20 0.27 0.36 0.37 0.35 0.34 0.34 0.29 0.27 0.25 0.21 0.17 0.15 0.09 0.08 0.09 0.06 0.06 0.10 0.14 0.16 0.17 0.19
0.28 0.35 0.33 0.37 0.19 0.13 0.11 0.11 0.04 0.07 0.09 0.08 0.11 0.12 0.16 0.20 0.10 0.13 0.21 0.38 0.71 0.51 0.32 0.33 0.25 0.23 0.30 0.35 0.32 0.30 0.32 0.27 0.27 0.27 0.27 0.18 0.17 0.17 0.10 0.10 0.07 0.06 0.04 0.03 0.03 0.07 0.08 0.08 0.08 0.13 0.14 0.14 0.17 0.15
0.45 0.32 0.30 0.37 0.22 0.12 0.08 0.08 0.07 0.08 0.09 0.08 0.13 0.12 0.16 0.12 0.11 0.08 0.11 0.41 0.43 0.37 0.36 0.33 0.26 0.26 0.35 0.45 0.51 0.40 0.19 0.13 0.13 0.12 0.14 0.09 0.08 0.13 0.12 0.08 0.06 0.05 0.05 0.11 0.14 0.13 0.12 0.11 0.12 0.11 0.12 0.13 0.12 0.13
0.48 0.32 0.19 0.19 0.20 0.12 0.12 0.09 0.08 0.05 0.06 0.10 0.15 0.14 0.15 0.22 0.20 0.18 0.28 0.45 0.31 0.33 0.38 0.38 0.35 0.26 0.29 0.29 0.30 0.30 0.20 0.10 0.10 0.06 0.06 0.03 0.03 0.06 0.08 0.10 0.12 0.12 0.04 0.06 0.08 0.16 0.19 0.15 0.14 0.14 0.16 0.15 0.15 0.16
0.41 0.34 0.15 0.09 0.12 0.14 0.14 0.11 0.08 0.13 0.17 0.17 0.18 0.17 0.20 0.21 0.18 0.36 0.46 0.36 0.35 0.36 0.28 0.26 0.18 0.16 0.16 0.14 0.11 0.17 0.39 0.43 0.24 0.10 0.05 0.01 0.02 0.02 0.05 0.09 0.09 0.08 0.04 0.04 0.04 0.08 0.12 0.15 0.16 0.17 0.18 0.21 0.18 0.15
0.44 0.19 0.14 0.09 0.05 0.09 0.19 0.20 0.21 0.25 0.26 0.22 0.22 0.20 0.20 0.22 0.48 0.57 0.59 0.50 0.33 0.20 0.16 0.16 0.14 0.07 0.05 0.07 0.09 0.08 0.09 0.16 0.19 0.16 0.21 0.20 0.10 0.06 0.06 0.07 0.04 0.02 0.04 0.04 0.05 0.04 0.07 0.10 0.15 0.19 0.22 0.18 0.15 0.16
0.36 0.19 0.11 0.13 0.17 0.25 0.33 0.32 0.34 0.33 0.24 0.22 0.24 0.31 0.40 0.41 0.57 0.63 0.59 0.56 0.40 0.21 0.15 0.15 0.24 0.14 0.11 0.11 0.09 0.07 0.07 0.08 0.16 0.26 0.23 0.26 0.26 0.17 0.12 0.09 0.05 0.03 0.06 0.09 0.12 0.09 0.11 0.14 0.16 0.16 0.17 0.20 0.19 0.27
0.14 0.16 0.21 0.14 0.19 0.45 0.66 0.44 0.47 0.31 0.13 0.14 0.24 0.35 0.46 0.79 1.06 0.73 0.54 0.51 0.51 0.49 0.38 0.26 0.25 0.19 0.18 0.17 0.19 0.24 0.22 0.14 0.15 0.20 0.26 0.27 0.26 0.21 0.15 0.10 0.07 0.07 0.08 0.09 0.14 0.25 0.26 0.22 0.24 0.27 0.30 0.31 0.36 0.36
0.21 0.27 0.34 0.26 0.36 0.47 0.35 0.19 0.16 0.16 0.13 0.12 0.18 0.34 0.47 0.68 0.62 0.49 0.47 0.48 0.43 0.38 0.33 0.36 0.35 0.29 0.23 0.21 0.18 0.17 0.23 0.20 0.14 0.15 0.17 0.13 0.15 0.20 0.26 0.20 0.13 0.09 0.09 0.08 0.10 0.12 0.14 0.17 0.19 0.18 0.17 0.17 0.18 0.21
0.20 0.29 0.30 0.29 0.36 0.32 0.26 0.21 0.17 0.25 0.22 0.17 0.27 0.42 0.50 0.47 0.41 0.33 0.36 0.33 0.31 0.28 0.28 0.28 0.32 0.39 0.35 0.29 0.22 0.21 0.19 0.17 0.13 0.12 0.14 0.15 0.13 0.12 0.14 0.21 0.27 0.26 0.18 0.14 0.13 0.13 0.13 0.13 0.15 0.15 0.16 0.14 0.14 0.15
0.31 0.41 0.39 0.26 0.21 0.21 0.21 0.25 0.30 0.24 0.23 0.29 0.46 0.68 0.71 0.58 0.48 0.51 0.35 0.33 0.41 0.33 0.27 0.28 0.33 0.32 0.28 0.29 0.31 0.28 0.24 0.19 0.15 0.11 0.12 0.15 0.13 0.13 0.15 0.19 0.24 0.28 0.29 0.25 0.20 0.18 0.18 0.17 0.16 0.13 0.12 0.11 0.10 0.11

GFSWCAN_prec_precacc_189.txt.gz
Total_Precipitation_Accumulation
1.79 1.82 1.86 1.71 1.44 1.46 1.56 1.64 1.77 2.07 1.87 1.70 1.71 1.52 2.19 1.99 1.92 2.54 2.18 1.79 3.18 3.61 1.68 1.14 0.73 0.86 0.95 1.12 1.53 1.72 2.14 2.31 2.49 2.52 2.14 1.79 1.44 0.76 0.87 1.24 0.86 1.11 1.35 1.77 2.10 2.38 1.30 0.12 0.30 0.65 0.83 0.46 0.31 0.38
1.78 1.89 1.53 1.34 1.06 1.28 1.52 1.46 1.41 1.40 1.95 1.72 1.62 1.58 2.00 2.14 2.04 2.36 2.35 1.69 2.31 3.59 2.36 1.24 0.77 0.59 0.56 0.60 0.91 1.16 1.78 1.94 2.23 2.39 1.75 1.23 0.96 0.68 0.75 0.96 0.89 1.54 1.37 1.44 1.17 1.14 0.58 0.30 0.43 0.49 0.41 0.42 0.44 0.60
1.55 1.78 1.41 1.12 1.06 1.08 1.30 1.27 1.30 1.23 1.46 1.62 1.61 1.68 2.25 2.45 2.24 2.33 2.13 1.72 3.45 4.01 2.77 1.72 1.34 0.63 0.44 0.56 0.65 1.41 1.06 1.37 1.93 1.91 2.28 1.66 1.24 0.57 0.51 0.74 0.71 0.60 0.56 1.04 1.03 0.71 0.41 0.55 0.46 0.25 0.25 0.28 0.30 0.31
1.49 1.79 1.35 1.03 1.21 1.12 1.09 0.79 0.94 1.22 1.29 1.61 1.97 1.98 2.42 2.72 2.51 2.79 2.61 2.29 3.60 3.01 2.83 1.99 1.31 0.93 0.55 0.73 0.49 0.71 0.61 0.62 1.16 1.72 2.51 2.37 1.51 0.92 0.72 0.69 0.64 0.54 0.77 0.74 1.05 0.97 0.70 0.66 0.94 0.62 0.44 0.32 0.32 0.33
1.54 1.44 1.19 1.33 1.28 0.90 0.85 0.54 0.60 0.91 1.00 1.64 2.01 2.12 2.52 3.06 3.30 4.05 3.43 3.03 2.81 2.45 2.45 1.92 1.04 1.08 0.79 0.96 0.71 0.75 0.87 0.86 1.40 1.80 2.16 1.65 1.21 1.28 1.05 0.92 0.58 0.42 1.01 0.97 0.92 1.14 1.28 1.36 0.89 0.72 0.81 0.61 0.44 0.22
1.52 1.13 1.43 1.70 1.22 0.81 0.59 0.54 0.56 0.67 0.92 1.60 2.02 2.26 2.74 3.12 4.33 6.50 7.83 4.58 2.63 2.42 2.86 2.34 1.32 1.02 1.15 1.55 1.33 0.96 1.41 1.41 1.68 2.14 1.43 0.92 0.79 1.49 1.54 1.46 0.77 0.48 0.47 0.65 0.99 1.04 1.08 0.97 0.61 0.38 0.29 0.34 0.34 0.24
1.46 1.59 1.90 1.68 1.09 0.62 0.44 0.53 0.53 0.67 0.98 1.37 1.66 1.95 2.34 2.63 3.25 4.44 3.57 2.18 1.87 2.88 4.31 2.76 1.75 1.20 1.40 2.13 2.34 2.00 1.85 2.26 2.36 2.23 1.42 0.81 0.73 1.26 1.57 1.12 0.70 0.44 0.52 0.52 0.69 0.61 0.41 0.33 0.27 0.16 0.07 0.05 0.04 0.04
2.07 2.09 1.63 1.22 0.77 0.77 0.46 0.61 0.70 0.83 1.10 1.20 1.60 1.89 2.37 2.84 3.43 2.87 1.84 1.93 2.04 3.32 2.92 2.21 1.81 1.97 1.75 2.55 3.01 2.46 2.79 2.93 2.76 2.32 1.43 0.88 0.96 1.57 1.65 0.73 0.39 0.29 0.44 0.38 0.38 0.29 0.20 0.13 0.08 0.05 0.04 0.12 0.21 0.18
2.50 1.75 1.11 1.10 0.81 0.81 0.51 0.74 0.94 1.10 1.28 1.78 2.15 2.90 4.29 3.85 3.45 2.33 1.87 2.49 2.67 2.71 2.13 0.95 1.24 2.64 2.42 2.41 2.48 2.26 2.43 2.80 2.16 1.60 1.15 1.25 1.59 1.59 0.86 0.35 0.31 0.25 0.31 0.33 0.22 0.12 0.09 0.09 0.06 0.05 0.02 0.03 0.25 0.36
1.65 1.09 0.79 0.97 0.83 0.95 0.85 1.07 1.38 1.44 1.95 2.29 2.72 3.53 3.76 2.40 2.02 2.32 3.47 3.83 3.88 2.50 1.55 0.98 0.72 1.74 2.46 2.55 2.23 2.19 1.87 1.61 1.68 1.18 1.17 1.60 1.16 0.51 0.21 0.21 0.22 0.18 0.21 0.21 0.21 0.25 0.23 0.31 0.21 0.09 0.05 0.08 0.18 0.16
0.88 0.78 0.74 0.93 0.91 0.87 0.88 1.09 1.72 2.02 2.04 1.81 2.16 2.87 2.44 2.36 2.40 2.67 2.71 2.16 1.81 1.29 0.55 0.62 0.65 1.41 1.66 2.46 2.01 1.64 1.90 1.31 1.03 1.16 1.04 1.30 0.69 0.37 0.13 0.09 0.11 0.16 0.20 0.23 0.26 0.27 0.28 0.45 0.19 0.13 0.23 0.29 0.23 0.16
0.95 0.79 0.81 0.83 0.87 0.93 1.07 1.28 1.56 1.05 1.18 1.07 1.71 2.08 2.56 2.46 2.09 1.67 1.28 0.91 0.74 0.61 0.39 0.57 0.86 1.55 1.54 1.91 1.97 1.69 1.61 1.53 1.46 0.99 0.81 0.93 0.68 0.29 0.20 0.16 0.13 0.16 0.22 0.29 0.26 0.25 0.27 0.29 0.27 0.24 0.25 0.23 0.23 0.26
0.82 0.79 0.84 0.84 0.92 0.93 0.89 1.08 1.09 1.06 1.29 1.46 1.23 1.32 1.49 1.20 1.27 0.81 0.58 0.57 0.60 0.47 0.47 0.59 1.20 1.80 1.52 1.92 1.85 1.38 1.74 1.57 1.30 1.79 1.21 0.65 0.41 0.32 0.19 0.21 0.24 0.26 0.25 0.30 0.33 0.34 0.30 0.29 0.28 0.30 0.32 0.39 0.41 0.54
0.63 0.73 1.11 1.18 1.09 1.13 1.31 1.50 1.85 1.71 1.57 1.29 1.09 0.94 1.16 0.90 0.66 0.63 0.71 0.96 0.57 0.74 0.80 1.18 1.37 1.61 1.61 1.65 1.37 1.06 1.24 1.17 1.13 0.97 0.86 0.74 0.49 0.36 0.31 0.30 0.28 0.39 0.44 0.47 0.51 0.49 0.54 0.59 0.75 0.91 0.97 1.05 0.86 0.96
0.63 0.92 1.25 1.16 1.17 1.24 1.38 1.58 1.63 1.29 1.14 1.21 1.04 1.11 0.71 1.00 0.85 0.81 0.68 0.55 0.50 0.89 1.35 1.54 1.52 1.36 1.15 1.60 0.96 0.73 0.84 0.91 0.79 1.01 1.01 0.75 0.59 0.57 0.59 0.63 0.66 0.76 0.82 0.90 0.97 0.91 1.01 0.97 0.83 1.07 1.20 1.08 0.86 0.85
0.62 1.27 1.29 1.21 1.21 1.11 1.28 1.29 1.28 1.22 1.23 1.20 1.18 1.04 0.83 0.85 0.89 0.75 0.61 0.53 0.65 1.35 1.49 1.47 1.40 1.10 0.83 0.52 0.53 0.50 0.59 0.97 0.88 0.79 0.76 0.67 0.74 0.88 0.93 0.96 1.04 1.06 1.00 0.99 0.98 0.87 0.87 0.82 0.74 0.83 0.86 0.78 0.73 0.55
0.90 1.56 1.29 1.06 0.93 0.91 1.01 1.09 1.09 0.91 0.94 0.86 1.09 1.21 1.12 1.00 1.08 1.08 0.93 0.79 0.79 1.28 1.40 0.96 0.83 0.80 0.82 0.43 0.34 0.40 0.74 1.04 1.00 1.01 0.90 0.86 0.93 1.06 1.09 1.01 0.99 0.83 0.73 0.70 0.65 0.62 0.65 0.63 0.45 0.33 0.40 0.51 0.41 0.35
0.87 0.90 0.80 0.66 0.58 0.72 0.61 0.45 0.65 0.52 0.54 0.85 0.91 1.17 0.84 1.02 1.03 0.90 0.93 0.92 1.05 1.16 1.09 1.06 0.83 0.58 0.77 1.15 1.13 1.18 1.16 1.21 1.14 0.97 0.96 1.05 0.96 0.97 0.96 0.83 0.85 0.68 0.54 0.53 0.44 0.42 0.41 0.35 0.28 0.31 0.30 0.29 0.25 0.27
0.91 0.90 0.96 0.65 0.43 0.61 0.67 0.49 0.30 0.37 0.71 0.75 0.77 0.62 0.54 0.70 0.65 0.65 0.53 0.51 0.44 0.38 0.49 0.48 0.43 0.55 0.80 0.99 1.08 1.00 0.96 0.77 0.80 0.75 0.75 0.85 0.83 0.81 0.82 0.73 0.66 0.58 0.43 0.36 0.25 0.25 0.29 0.29 0.30 0.26 0.23 0.19 0.23 0.26
0.93 0.70 0.62 0.63 0.63 0.63 0.56 0.39 0.16 0.20 0.54 0.65 0.57 0.34 0.32 0.45 0.33 0.18 0.11 0.08 0.07 0.17 0.30 0.48 0.77 1.04 1.10 1.21 0.89 0.80 0.78 0.61 0.47 0.45 0.61 0.73 0.73 0.59 0.62 0.50 0.44 0.38 0.30 0.29 0.29 0.27 0.24 0.26 0.24 0.20 0.19 0.18 0.18 0.20
0.81 0.52 0.26 0.32 0.72 0.55 0.34 0.38 0.31 0.19 0.29 0.39 0.34 0.19 0.31 0.15 0.13 0.14 0.11 0.08 0.16 0.27 0.62 0.88 0.92 1.07 0.75 0.73 0.65 0.55 0.59 0.51 0.53 0.34 0.35 0.45 0.52 0.34 0.40 0.44 0.34 0.26 0.24 0.28 0.28 0.30 0.26 0.22 0.19 0.15 0.15 0.17 0.17 0.15
0.47 0.21 0.19 0.24 0.41 0.51 0.30 0.07 0.30 0.37 0.12 0.17 0.17 0.14 0.22 0.24 0.18 0.13 0.20 0.23 0.45 0.71 0.74 0.65 0.65 0.53 0.38 0.43 0.45 0.31 0.36 0.29 0.33 0.36 0.37 0.32 0.37 0.39 0.45 0.46 0.31 0.33 0.32 0.29 0.24 0.23 0.19 0.16 0.12 0.11 0.12 0.15 0.14 0.12
0.21 0.18 0.19 0.10 0.21 0.16 0.18 0.10 0.12 0.13 0.13 0.14 0.13 0.18 0.15 0.21 0.25 0.21 0.27 0.27 0.63 0.81 0.54 0.28 0.29 0.23 0.39 0.45 0.29 0.21 0.22 0.20 0.27 0.36 0.37 0.35 0.34 0.34 0.29 0.27 0.25 0.21 0.17 0.15 0.09 0.08 0.09 0.06 0.06 0.10 0.14 0.16 0.18 0.20
0.28 0.35 0.33 0.37 0.19 0.13 0.11 0.11 0.05 0.07 0.09 0.08 0.11 0.12 0.16 0.20 0.10 0.13 0.21 0.38 0.71 0.51 0.32 0.33 0.25 0.23 0.31 0.36 0.34 0.32 0.33 0.27 0.27 0.27 0.27 0.18 0.17 0.17 0.10 0.10 0.07 0.06 0.04 0.03 0.03 0.07 0.08 0.08 0.08 0.13 0.14 0.14 0.17 0.15
0.45 0.32 0.30 0.37 0.22 0.13 0.08 0.08 0.07 0.09 0.09 0.08 0.13 0.12 0.16 0.12 0.11 0.08 0.11 0.41 0.44 0.38 0.36 0.33 0.26 0.27 0.35 0.46 0.52 0.41 0.19 0.13 0.14 0.12 0.14 0.09 0.08 0.13 0.12 0.08 0.06 0.05 0.05 0.11 0.14 0.13 0.12 0.11 0.12 0.11 0.12 0.13 0.12 0.13
0.48 0.32 0.19 0.19 0.21 0.12 0.12 0.09 0.08 0.05 0.06 0.10 0.15 0.14 0.15 0.22 0.20 0.19 0.29 0.46 0.31 0.35 0.39 0.38 0.35 0.26 0.29 0.30 0.30 0.32 0.24 0.12 0.11 0.07 0.06 0.03 0.03 0.06 0.08 0.10 0.12 0.12 0.04 0.06 0.08 0.16 0.19 0.15 0.14 0.14 0.16 0.15 0.15 0.16
0.41 0.34 0.15 0.09 0.12 0.14 0.15 0.11 0.08 0.13 0.17 0.17 0.18 0.17 0.20 0.21 0.19 0.37 0.47 0.37 0.36 0.37 0.28 0.26 0.18 0.16 0.16 0.14 0.11 0.18 0.41 0.45 0.34 0.16 0.05 0.01 0.02 0.02 0.05 0.09 0.09 0.08 0.04 0.04 0.04 0.08 0.12 0.15 0.16 0.17 0.18 0.21 0.18 0.15
0.44 0.19 0.15 0.09 0.07 0.12 0.21 0.20 0.21 0.25 0.26 0.22 0.22 0.20 0.20 0.23 0.48 0.58 0.59 0.51 0.33 0.20 0.16 0.16 0.14 0.07 0.05 0.07 0.09 0.08 0.09 0.16 0.25 0.34 0.38 0.27 0.10 0.06 0.06 0.07 0.04 0.02 0.04 0.04 0.05 0.04 0.07 0.10 0.15 0.19 0.22 0.18 0.15 0.16
0.36 0.19 0.14 0.15 0.20 0.30 0.37 0.32 0.34 0.33 0.24 0.22 0.24 0.31 0.40 0.42 0.59 0.64 0.60 0.57 0.40 0.21 0.15 0.15 0.24 0.14 0.11 0.11 0.09 0.07 0.07 0.08 0.16 0.26 0.25 0.33 0.40 0.37 0.18 0.10 0.05 0.03 0.06 0.09 0.12 0.09 0.11 0.14 0.16 0.16 0.17 0.20 0.19 0.27
0.15 0.18 0.27 0.19 0.24 0.48 0.69 0.45 0.47 0.31 0.13 0.14 0.24 0.35 0.47 0.80 1.07 0.73 0.54 0.51 0.51 0.49 0.38 0.26 0.25 0.19 0.18 0.17 0.19 0.24 0.22 0.14 0.15 0.21 0.27 0.29 0.30 0.33 0.34 0.19 0.08 0.07 0.08 0.09 0.14 0.25 0.26 0.22 0.24 0.27 0.30 0.31 0.36 0.36
0.24 0.30 0.36 0.30 0.39 0.50 0.38 0.20 0.16 0.16 0.13 0.12 0.18 0.34 0.47 0.68 0.62 0.49 0.47 0.48 0.43 0.38 0.33 0.36 0.35 0.29 0.23 0.21 0.18 0.17 0.23 0.20 0.14 0.15 0.18 0.15 0.16 0.22 0.34 0.38 0.31 0.18 0.11 0.09 0.10 0.12 0.14 0.17 0.19 0.18 0.17 0.17 0.18 0.21
0.21 0.30 0.31 0.30 0.38 0.35 0.29 0.24 0.19 0.26 0.23 0.17 0.27 0.42 0.50 0.47 0.41 0.33 0.36 0.33 0.31 0.28 0.28 0.28 0.32 0.40 0.35 0.29 0.22 0.21 0.19 0.17 0.13 0.12 0.15 0.15 0.14 0.13 0.14 0.23 0.33 0.43 0.40 0.27 0.17 0.13 0.13 0.13 0.15 0.15 0.16 0.14 0.14 0.15
0.32 0.41 0.39 0.26 0.23 0.24 0.24 0.28 0.32 0.26 0.24 0.29 0.46 0.69 0.71 0.58 0.49 0.52 0.35 0.33 0.41 0.33 0.27 0.28 0.33 0.33 0.28 0.29 0.31 0.28 0.24 0.19 0.15 0.11 0.12 0.15 0.14 0.14 0.15 0.20 0.25 0.31 0.36 0.37 0.34 0.26 0.22 0.18 0.16 0.13 0.12 0.11 0.10 0.11